Weather History for KVUJ - December, 2013

Change the Weather History Date:

Thursday, December 19, 2013

  Actual Average (KHBI) Record (KHBI)
Temperature  
Mean Temperature 42 °F -  
Max Temperature 62 °F 52 °F 76 °F (1984)
Min Temperature 23 °F 32 °F 10 °F (1950)
Degree Days  
Heating Degree Days 22    
Moisture  
Dew Point 25 °F    
Average Humidity 60    
Maximum Humidity 96    
Minimum Humidity 21    
Precipitation  
Precipitation 0.00 in - - ()
Sea Level Pressure  
Sea Level Pressure 30.31 in    
Wind  
Wind Speed 3 mph (SSW)    
Max Wind Speed 15 mph    
Max Gust Speed 22 mph    
Visibility 10 miles    
Events      
Averages and records for this station are not official NWS values.
T = Trace of Precipitation, MM = Missing Value Source: NWS Daily Summary

Daily Weather History Graph

Daily Weather History Graph

Search for Another Location

Airport or City:

Trip Planner

Search our weather history database for the weather conditions in past years. The results will help you decide how hot, cold, wet, or windy it might be!

Date:

Astronomy

Dec. 19, 2013 Rise Set
Actual Time 7:24 AM EST 5:10 PM EST
Civil Twilight 6:56 AM EST 5:39 PM EST
Nautical Twilight 6:24 AM EST 6:11 PM EST
Astronomical Twilight 5:53 AM EST 6:42 PM EST
Moon 7:30 PM EST (12/19) 8:46 AM EST (12/19)
Length of Visible Light 10h 42m
Length of Day
9h 46m
Waning Gibbous, 95% of the Moon is Illuminated
Dec 19
Waning Gibbous
Dec 25
Last Quarter
Jan 1
New
Jan 7
First Quarter
Jan 15
Full

Hourly Weather History & Observations

Time (EST) Temp. Windchill Dew Point Humidity Pressure Visibility Wind Dir Wind Speed Gust Speed Precip Events Conditions
12:15 AM 27.1 °F - 24.4 °F 90% 30.32 in 10.0 mi Calm Calm - N/A   Clear
12:35 AM 26.4 °F - 23.9 °F 90% 30.32 in 10.0 mi Calm Calm - N/A   Clear
12:55 AM 27.5 °F - 24.6 °F 89% 30.32 in 10.0 mi Calm Calm - N/A   Clear
1:15 AM 27.0 °F - 24.4 °F 90% 30.32 in 10.0 mi Calm Calm - N/A   Clear
1:35 AM 27.3 °F - 23.9 °F 87% 30.32 in 10.0 mi Calm Calm - N/A   Clear
1:55 AM 27.3 °F - 24.6 °F 90% 30.32 in 10.0 mi Calm Calm - N/A   Clear
2:15 AM 26.6 °F - 23.5 °F 88% 30.32 in 10.0 mi Calm Calm - N/A   Clear
2:35 AM 27.0 °F - 22.8 °F 84% 30.32 in 10.0 mi Calm Calm - N/A   Clear
2:55 AM 26.2 °F - 23.9 °F 91% 30.33 in 10.0 mi Calm Calm - N/A   Clear
3:15 AM 26.1 °F - 24.3 °F 93% 30.33 in 10.0 mi Calm Calm - N/A   Clear
3:35 AM 25.7 °F - 23.7 °F 92% 30.33 in 10.0 mi Calm Calm - N/A   Clear
3:55 AM 26.2 °F - 24.6 °F 94% 30.33 in 10.0 mi Calm Calm - N/A   Clear
4:15 AM 26.2 °F - 23.9 °F 91% 30.33 in 10.0 mi Calm Calm - N/A   Clear
4:35 AM 26.1 °F - 23.9 °F 92% 30.32 in 10.0 mi Calm Calm - N/A   Clear
4:55 AM 25.5 °F - 24.3 °F 95% 30.32 in 10.0 mi Calm Calm - N/A   Clear
5:15 AM 25.5 °F - 23.5 °F 92% 30.33 in 10.0 mi Calm Calm - N/A   Clear
5:35 AM 25.0 °F - 23.7 °F 95% 30.33 in 10.0 mi Calm Calm - N/A   Clear
5:55 AM 25.3 °F - 23.9 °F 94% 30.34 in 10.0 mi Calm Calm - N/A   Clear
6:15 AM 25.0 °F - 23.5 °F 94% 30.34 in 10.0 mi Calm Calm - N/A   Clear
6:35 AM 24.6 °F - 22.5 °F 91% 30.35 in 10.0 mi Calm Calm - N/A   Clear
6:55 AM 24.3 °F - 22.8 °F 94% 30.35 in 10.0 mi Calm Calm - N/A   Clear
7:15 AM 24.8 °F - 23.2 °F 94% 30.35 in 10.0 mi Calm Calm - N/A   Clear
7:35 AM 25.7 °F - 23.4 °F 91% 30.36 in 10.0 mi Calm Calm - N/A   Clear
7:55 AM 23.7 °F - 22.6 °F 96% 30.36 in 10.0 mi Calm Calm - N/A   Clear
8:15 AM 26.6 °F - 25.3 °F 95% 30.36 in 10.0 mi Calm Calm - N/A   Clear
8:35 AM 34.3 °F 29.2 °F 29.3 °F 82% 30.37 in 10.0 mi SW 5.8 mph - N/A   Clear
8:55 AM 37.4 °F 32.8 °F 28.8 °F 71% 30.36 in 10.0 mi SW 5.8 mph - N/A   Clear
9:15 AM 39.7 °F 35.6 °F 28.4 °F 64% 30.37 in 10.0 mi SW 5.8 mph - N/A   Clear
9:35 AM 42.3 °F 36.8 °F 28.9 °F 59% 30.37 in 10.0 mi SW 9.2 mph - N/A   Clear
9:55 AM 45.0 °F 40.6 °F 27.7 °F 51% 30.37 in 10.0 mi SW 8.1 mph - N/A   Clear
10:15 AM 46.6 °F - 27.3 °F 47% 30.37 in 10.0 mi SSW 11.5 mph - N/A   Clear
10:35 AM 48.9 °F - 27.5 °F 43% 30.37 in 10.0 mi SW 9.2 mph - N/A   Clear
10:55 AM 51.1 °F - 27.5 °F 40% 30.37 in 10.0 mi SW 6.9 mph - N/A   Clear
11:15 AM 52.9 °F - 27.7 °F 38% 30.36 in 10.0 mi SW 10.4 mph - N/A   Clear
11:35 AM 54.3 °F - 27.3 °F 35% 30.35 in 10.0 mi SSW 10.4 mph - N/A   Clear
11:55 AM 55.0 °F - 27.5 °F 35% 30.34 in 10.0 mi SSW 10.4 mph - N/A   Clear
12:15 PM 57.4 °F - 27.0 °F 31% 30.33 in 10.0 mi SSW 11.5 mph - N/A   Clear
12:35 PM 58.8 °F - 24.8 °F 27% 30.32 in 10.0 mi South 11.5 mph - N/A   Clear
12:55 PM 60.6 °F - 21.7 °F 22% 30.30 in 10.0 mi SSW 10.4 mph 18.4 mph N/A   Clear
1:15 PM 61.0 °F - 19.9 °F 21% 30.30 in 10.0 mi SSW 11.5 mph 21.9 mph N/A   Clear
1:35 PM 61.5 °F - 21.6 °F 22% 30.29 in 10.0 mi SW 12.7 mph - N/A   Clear
1:55 PM 61.9 °F - 23.0 °F 23% 30.28 in 10.0 mi SSW 10.4 mph - N/A   Clear
2:15 PM 62.6 °F - 22.8 °F 22% 30.28 in 10.0 mi SSW 13.8 mph 17.3 mph N/A   Clear
2:35 PM 62.6 °F - 22.5 °F 22% 30.27 in 10.0 mi SSW 15.0 mph - N/A   Clear
2:55 PM 61.9 °F - 22.8 °F 22% 30.27 in 10.0 mi SSW 11.5 mph - N/A   Clear
3:15 PM 60.8 °F - 21.9 °F 22% 30.27 in 10.0 mi SSW 11.5 mph - N/A   Clear
3:35 PM 61.9 °F - 22.1 °F 22% 30.26 in 10.0 mi South 10.4 mph - N/A   Clear
3:55 PM 61.5 °F - 22.6 °F 23% 30.27 in 10.0 mi SSW 10.4 mph - N/A   Clear
4:15 PM 59.7 °F - 23.0 °F 24% 30.27 in 10.0 mi SSW 11.5 mph - N/A   Clear
4:35 PM 58.3 °F - 23.2 °F 26% 30.27 in 10.0 mi SSW 8.1 mph - N/A   Clear
4:55 PM 57.4 °F - 23.4 °F 27% 30.27 in 10.0 mi SSW 6.9 mph - N/A   Clear
5:15 PM 54.1 °F - 24.1 °F 31% 30.28 in 10.0 mi South 5.8 mph - N/A   Clear
5:35 PM 54.1 °F - 23.7 °F 31% 30.28 in 10.0 mi SSW 4.6 mph - N/A   Clear
5:55 PM 53.1 °F - 24.1 °F 32% 30.29 in 10.0 mi SSW 4.6 mph - N/A   Clear
6:15 PM 51.1 °F - 25.2 °F 36% 30.29 in 10.0 mi SSW 4.6 mph - N/A   Clear
6:35 PM 51.4 °F - 25.0 °F 36% 30.29 in 10.0 mi SW 3.5 mph - N/A   Clear
6:55 PM 47.8 °F - 26.4 °F 43% 30.29 in 10.0 mi SSW 5.8 mph - N/A   Clear
7:15 PM 50.5 °F - 25.5 °F 38% 30.30 in 10.0 mi SSW 4.6 mph - N/A   Clear
7:35 PM 50.4 °F - 25.7 °F 38% 30.30 in 10.0 mi SW 4.6 mph - N/A   Clear
7:55 PM 48.4 °F - 26.4 °F 42% 30.29 in 10.0 mi SW 5.8 mph - N/A   Clear
8:15 PM 48.4 °F - 26.6 °F 43% 30.29 in 10.0 mi SW 3.5 mph - N/A   Clear
8:35 PM 44.2 °F - 27.1 °F 51% 30.29 in 10.0 mi Calm Calm - N/A   Clear
8:55 PM 40.1 °F - 30.6 °F 69% 30.29 in 10.0 mi Calm Calm - N/A   Clear
9:15 PM 38.1 °F 35.7 °F 31.1 °F 76% 30.29 in 10.0 mi WSW 3.5 mph - N/A   Clear
9:35 PM 36.9 °F - 30.9 °F 79% 30.29 in 10.0 mi Calm Calm - N/A   Clear
9:55 PM 36.7 °F 32.9 °F 30.6 °F 78% 30.29 in 10.0 mi SSW 4.6 mph - N/A   Clear
10:15 PM 37.4 °F 34.9 °F 30.9 °F 77% 30.29 in 10.0 mi SSW 3.5 mph - N/A   Clear
10:35 PM 44.8 °F 41.0 °F 29.8 °F 56% 30.28 in 10.0 mi SSW 6.9 mph - N/A   Clear
10:55 PM 44.8 °F 41.0 °F 29.7 °F 55% 30.28 in 10.0 mi SSW 6.9 mph - N/A   Clear
11:15 PM 43.0 °F 38.8 °F 29.8 °F 60% 30.29 in 10.0 mi SW 6.9 mph - N/A   Clear
11:35 PM 44.8 °F 41.6 °F 29.3 °F 55% 30.28 in 10.0 mi SW 5.8 mph - N/A   Clear
11:55 PM 44.4 °F 41.2 °F 29.8 °F 57% 30.28 in 10.0 mi WSW 5.8 mph - N/A   Clear